Address 0xB24b9AdDa1D791d1675697a2D3e676632D99dBd6

 

Overview

Balance:
1.212262341672784192 BNB

BNB Value:
$365.50 (@ $301.50/BNB)
Txn Hash
Block
From
To
Value [Txn Fee]
0x267d594bed3fea74aafa749d7c2d9cbcf33f56c0d31f83eeb36d8a22185a7ad493977842021-07-23 3:40:452 days 3 hrs ago0xb24b9adda1d791d1675697a2d3e676632d99dbd6OUT Contract Creation0 BNB0.001920445
0xde2618ba232976a9f76c59cb5e660edde9adb04495b9370c0092a1a37b075bf990789432021-07-12 1:51:1113 days 5 hrs ago0xb24b9adda1d791d1675697a2d3e676632d99dbd6OUT0x02d469d198b824b26cb4bafa2e44ffbcdfd0d8bc56 BNB0.000105
0x10f05b3f0d21c33db67a07119f59d778629959a4553f02c77795f7d53abef06590789122021-07-12 1:49:3813 days 5 hrs ago0xb24b9adda1d791d1675697a2d3e676632d99dbd6OUT0xd4a943294e1c375fb219f53927314af0394f92491 BNB0.000105
0x2c165fdefa2c93c86120d4529e1a9d33ae0f0c7c36fd8c42dffb8d7c1151c49990789092021-07-12 1:49:2913 days 5 hrs ago0xb24b9adda1d791d1675697a2d3e676632d99dbd6OUT0xf9492038edd260b874fc602f3016fffda967e8ef1 BNB0.000105
0x7dad4eaea908851320b8734d2351ebc36c63a9abb1036966d3e91114ffec5a4b90789052021-07-12 1:49:1713 days 5 hrs ago0xb24b9adda1d791d1675697a2d3e676632d99dbd6OUT0x9cd40dd365dae35cad2728321a58d229114c329a1 BNB0.000105
0xd6926f33e11af320dbca4c48b04adb80fc1979d4ea9ab306a37957eb4ec8016b90095472021-07-09 16:01:0115 days 14 hrs agoBinance: Hot Wallet 10 IN 0xb24b9adda1d791d1675697a2d3e676632d99dbd657.77153659 BNB0.00021
0x060718e6108048ed2de7fdabafe04b1b2cd78557ea8be4093e4362160e4f9e8089629992021-07-08 1:12:1617 days 5 hrs ago0xb24b9adda1d791d1675697a2d3e676632d99dbd6OUT PancakeSwap: Auto CAKE Syrup Pool0 BNB0.00042836
0xb659a25063c6a261a087ee07b48f1147cafc89929b7175381cf3513073ce674989629712021-07-08 1:10:5217 days 5 hrs ago0xb24b9adda1d791d1675697a2d3e676632d99dbd6OUT PancakeSwap: Auto CAKE Syrup Pool0 BNB0.00063471
0xbba48d651cbc4cf49f1c4583ac4dbf2c7854f9b18f00da2faaf348f2aa03e56389629592021-07-08 1:10:1617 days 5 hrs ago0xb24b9adda1d791d1675697a2d3e676632d99dbd6OUT PancakeSwap: Auto CAKE Syrup Pool0 BNB0.00089657
0x36f42e88432a533828c25bb2a04d3b38a97e07d222e64d106f9aefdf458d5dff89140622021-07-06 8:20:5718 days 22 hrs ago0xb24b9adda1d791d1675697a2d3e676632d99dbd6OUT 0x5af6d33de2ccec94efb1bdf8f92bd58085432d2c0 BNB0.00108367
0x73e305889fa1f8534819436c0c60a5425e28362a322ab63b1849c9f41677292589138752021-07-06 8:11:3018 days 22 hrs ago0xb24b9adda1d791d1675697a2d3e676632d99dbd6OUT 0x5af6d33de2ccec94efb1bdf8f92bd58085432d2c0 BNB0.00100867
0xc956d800c1a6a48c8617bcb600e9eaee3a6cc379d0c75364d8213595229f7a4689105412021-07-06 5:23:2419 days 1 hr ago0xb24b9adda1d791d1675697a2d3e676632d99dbd6OUT PancakeSwap: Auto CAKE Syrup Pool0 BNB0.0009983
0x06c8355d672bce74fe85439e19a4fd83792391fd18d889fec183850a3f927fb189105162021-07-06 5:22:0019 days 1 hr ago0xb24b9adda1d791d1675697a2d3e676632d99dbd6OUT 0x5af6d33de2ccec94efb1bdf8f92bd58085432d2c0 BNB0.00244999
0xd885ec3037678f21aaec1a80972eb7d9e3651da3aab37a7c36c15515a8b9790e88766512021-07-05 0:50:4520 days 6 hrs ago0xb24b9adda1d791d1675697a2d3e676632d99dbd6OUT PancakeSwap: Router v20.5 BNB0.00059676
0x1e56908e8e290d90bae2f5d1dc434d83e4d3ad0913ea013adee036fbdeae553588759962021-07-05 0:18:0020 days 6 hrs ago0xb24b9adda1d791d1675697a2d3e676632d99dbd6OUT 0x5af6d33de2ccec94efb1bdf8f92bd58085432d2c0 BNB0.000343335
0x0597cf4e6ced2caa778eecb09850bb03a88576bc2d16ecfbf290e72c6658974188018512021-07-02 9:58:0022 days 20 hrs ago0xb24b9adda1d791d1675697a2d3e676632d99dbd6OUT 0x5af6d33de2ccec94efb1bdf8f92bd58085432d2c0 BNB0.00384565
0x93aaebc754d8a872834efe78492a3c66bd8d977885b3054dbcde6290cf8a01ca88017202021-07-02 9:51:2722 days 21 hrs ago0xb24b9adda1d791d1675697a2d3e676632d99dbd6OUT 0x5af6d33de2ccec94efb1bdf8f92bd58085432d2c0 BNB0.004341315
0xc62ddb71baf5d2b3f9cd9851b86930e6f9540a2f0f2f02cb636574a6cbd9b9d788017062021-07-02 9:50:4522 days 21 hrs ago0xb24b9adda1d791d1675697a2d3e676632d99dbd6OUT PancakeSwap: Auto CAKE Syrup Pool0 BNB0.000514032
0x20cf0eec4e7380c179578179cde2187eba1870389327e660db2ede3b78e79ba188016842021-07-02 9:49:3922 days 21 hrs ago0xb24b9adda1d791d1675697a2d3e676632d99dbd6OUT PancakeSwap: Auto CAKE Syrup Pool0 BNB0.000875745
0x8396d5942519804fc9db0899a30474ffde2e8ea913add2299f0c9a88f286a9ed88016532021-07-02 9:48:0622 days 21 hrs ago0xb24b9adda1d791d1675697a2d3e676632d99dbd6OUT PancakeSwap: CAKE Token0 BNB0.00022215
0x99e2385bf9f4e1d606d34d6813d99022e35d88485f2d9f67439eca2f9e14ea3788010182021-07-02 9:16:0222 days 21 hrs ago0xb24b9adda1d791d1675697a2d3e676632d99dbd6OUT 0xcad9146102d29175fd7908eb6820a48e4fc78cea0 BNB0.00024888
0x66afa67fc9a136979a1088d167127e2541ed6e2d3f2f1a0f8ac42f63e8f347fa88010092021-07-02 9:15:3522 days 21 hrs ago0xb24b9adda1d791d1675697a2d3e676632d99dbd6OUT 0xcad9146102d29175fd7908eb6820a48e4fc78cea0 BNB0.00024888
0x49303d3f5ac5adfd58da5c7d31571664e1f6e7334c9080b75e5cd123877b8e2688004302021-07-02 8:46:3722 days 22 hrs ago0xb24b9adda1d791d1675697a2d3e676632d99dbd6OUT 0x8c6375aab6e5b26a30bf241ebbf29ad6e6c503c20 BNB0.000154115
0x15daaf0c4496f4b87634ba031942beee9fef342665cd78b0839595770b595f8d88004192021-07-02 8:46:0422 days 22 hrs ago0xb24b9adda1d791d1675697a2d3e676632d99dbd6OUT 0x5af6d33de2ccec94efb1bdf8f92bd58085432d2c0 BNB0.000154335
0x30fc6d72e6f49e46497395bada823d39545af9566162e5a3fc65ded60f42d13288003852021-07-02 8:44:2222 days 22 hrs ago0xb24b9adda1d791d1675697a2d3e676632d99dbd6OUT 0x5af6d33de2ccec94efb1bdf8f92bd58085432d2c0 BNB0.00043875
[ Download CSV Export 
Latest 5 internal transactions
Parent Txn Hash Block From To Value
0x5b0738c81d4c98a49b682b514729a17cd9360250bf988976c0281e1e8c5c3ae579655702021-06-03 5:06:3452 days 1 hr ago 0x47b0ec1bea7d8ecc7cf70c3bf82c5f5d15a96b6d0xb24b9adda1d791d1675697a2d3e676632d99dbd60.001001323246788848 BNB
0xa315854cf8593bd7cad88257c6248d7645ccc6382a3e5af98ce11dabe608072b69559972021-04-28 10:26:1787 days 20 hrs ago Disperse.app0xb24b9adda1d791d1675697a2d3e676632d99dbd60.001 BNB
0xf087e501c8b5b140cd27c0bc26fb3b342bd0b6628c918661badc6fefc473069869526742021-04-28 7:39:1487 days 23 hrs ago 0x516ffd7d1e0ca40b1879935b2de87cb20fc1124b0xb24b9adda1d791d1675697a2d3e676632d99dbd60.032958845973793048 BNB
0x0db21893d5d66d499d61cc4c681d59a7b032bc760bf9fba7e74c1ed257748e5c69522672021-04-28 7:18:5387 days 23 hrs ago 0x516ffd7d1e0ca40b1879935b2de87cb20fc1124b0xb24b9adda1d791d1675697a2d3e676632d99dbd60.000043692706732596 BNB
0x617bd61ebdfe52eec7bc7b495e69931bdf7cedc5bd3d0f7d5c8e3c70a99e0ac955267772021-03-09 10:13:15137 days 20 hrs ago 0x977b2038d31eedcca826e6416c92ab844933e9820xb24b9adda1d791d1675697a2d3e676632d99dbd60.01 BNB
[ Download CSV Export 
Loading

Contract Name:
0 BNB

Compiler Version
0

Optimization Enabled:
0 BNB

Other Settings:
-NA-
Block Transaction Gas Used Reward
Age Block Fee Address BC Fee Address Voting Power Jailed Incoming
Block Uncle Number Difficulty Gas Used Reward
Loading
Loading
Make sure to use the "Vote Down" button for any spammy posts, and the "Vote Up" for interesting conversations.